Time,TemperatureF,DewpointF,PressureIn,WindDirection,WindDirectionDegrees,WindSpeedMPH,WindSpeedGustMPH,Humidity,HourlyPrecipIn,Conditions,Clouds,dailyrainin,SolarRadiationWatts/m^2,SoftwareType,DateUTC
2017-07-27 00:03:00,72.7,69.3,30.11,North,32767,0.0,0.0,89,0.00,,,0.00,0,Wunderground v.1.15,2017-07-27 04:03:00,
2017-07-27 00:08:00,72.8,69.4,30.11,North,32767,0.0,0.0,89,0.00,,,0.00,0,Wunderground v.1.15,2017-07-27 04:08:00,
2017-07-27 00:14:00,72.8,69.4,30.11,North,32767,0.0,0.0,89,0.00,,,0.00,0,Wunderground v.1.15,2017-07-27 04:14:00,
2017-07-27 00:20:00,72.6,69.2,30.11,North,32767,0.0,0.0,89,0.00,,,0.00,0,Wunderground v.1.15,2017-07-27 04:20:00,
2017-07-27 00:27:00,72.8,69.7,30.11,North,32767,0.0,0.0,90,0.00,,,0.00,0,Wunderground v.1.15,2017-07-27 04:27:00,
2017-07-27 00:32:00,72.9,69.5,30.11,North,32767,0.0,0.0,89,0.00,,,0.00,0,Wunderground v.1.15,2017-07-27 04:32:00,
2017-07-27 00:38:00,73.1,69.7,30.11,North,32767,0.0,0.0,89,0.00,,,0.00,0,Wunderground v.1.15,2017-07-27 04:38:00,
2017-07-27 00:43:00,73.4,70.0,30.11,North,32767,0.0,0.0,89,0.00,,,0.00,0,Wunderground v.1.15,2017-07-27 04:43:00,
2017-07-27 00:50:00,73.7,70.3,30.11,North,32767,0.0,0.0,89,0.00,,,0.00,0,Wunderground v.1.15,2017-07-27 04:50:00,
2017-07-27 00:56:00,74.0,70.2,30.11,North,32767,0.0,0.0,88,0.00,,,0.00,0,Wunderground v.1.15,2017-07-27 04:56:00,
2017-07-27 01:02:00,74.2,70.4,30.12,North,32767,0.0,0.0,88,0.00,,,0.00,0,Wunderground v.1.15,2017-07-27 05:02:00,
2017-07-27 01:08:00,74.4,70.6,30.12,North,32767,0.0,0.0,88,0.00,,,0.00,0,Wunderground v.1.15,2017-07-27 05:08:00,
2017-07-27 01:14:00,74.4,70.6,30.12,North,32767,0.0,0.0,88,0.00,,,0.00,0,Wunderground v.1.15,2017-07-27 05:14:00,
2017-07-27 01:19:00,74.4,70.6,30.12,North,32767,0.0,0.0,88,0.00,,,0.00,0,Wunderground v.1.15,2017-07-27 05:19:00,
2017-07-27 01:25:00,74.4,70.6,30.11,North,32767,0.0,0.0,88,0.00,,,0.00,0,Wunderground v.1.15,2017-07-27 05:25:00,
2017-07-27 01:31:00,74.4,70.6,30.11,North,32767,0.0,0.0,88,0.00,,,0.00,0,Wunderground v.1.15,2017-07-27 05:31:00,
2017-07-27 01:36:00,74.6,70.8,30.11,North,32767,0.0,0.0,88,0.00,,,0.00,0,Wunderground v.1.15,2017-07-27 05:36:00,
2017-07-27 01:42:00,74.6,70.8,30.11,North,32767,0.0,0.0,88,0.00,,,0.00,0,Wunderground v.1.15,2017-07-27 05:42:00,
2017-07-27 01:47:00,74.6,70.8,30.11,North,32767,0.0,0.0,88,0.00,,,0.00,0,Wunderground v.1.15,2017-07-27 05:47:00,
2017-07-27 01:52:00,74.5,70.7,30.11,North,32767,0.0,0.0,88,0.00,,,0.00,0,Wunderground v.1.15,2017-07-27 05:52:00,
2017-07-27 01:58:00,74.5,70.7,30.10,North,32767,0.0,0.0,88,0.00,,,0.00,0,Wunderground v.1.15,2017-07-27 05:58:00,
2017-07-27 02:03:00,74.5,70.7,30.10,North,32767,0.0,0.0,88,0.00,,,0.00,0,Wunderground v.1.15,2017-07-27 06:03:00,
2017-07-27 02:10:00,74.3,70.8,30.09,North,32767,0.0,0.0,89,0.00,,,0.00,0,Wunderground v.1.15,2017-07-27 06:10:00,
2017-07-27 02:16:00,74.3,70.8,30.09,North,32767,0.0,0.0,89,0.00,,,0.00,0,Wunderground v.1.15,2017-07-27 06:16:00,
2017-07-27 02:21:00,74.2,70.7,30.09,North,32767,0.0,0.0,89,0.00,,,0.00,0,Wunderground v.1.15,2017-07-27 06:21:00,
2017-07-27 02:27:00,74.2,70.7,30.09,North,32767,0.0,0.0,89,0.00,,,0.00,0,Wunderground v.1.15,2017-07-27 06:27:00,
2017-07-27 02:32:00,74.1,70.6,30.09,North,32767,0.0,0.0,89,0.00,,,0.00,0,Wunderground v.1.15,2017-07-27 06:32:00,
2017-07-27 02:38:00,74.0,70.6,30.09,North,32767,0.0,0.0,89,0.00,,,0.00,0,Wunderground v.1.15,2017-07-27 06:38:00,
2017-07-27 02:43:00,73.9,70.5,30.09,North,32767,0.0,0.0,89,0.00,,,0.00,0,Wunderground v.1.15,2017-07-27 06:43:00,